SCP
0 0 0 0 0 0 0 0 0 0 0 0 0 0 0 0 0 0 0 0 0 0 0 0 0 0 0 0 0 0 0 0 0 0 0 0 0 0 0 0 0 0 0 0
0 0 0 0 0 0 0 0 0 -0 0 0 0 0 0 0 0 0 0 0 0 0 0 0 0 0 0 0 0 0 0 0 0 0 0 0 0 0 0 0 0 0 0 0
0 0 0 0 0 0 0 0 0 0 0 0 0 0 0 0 0 0 0 0 0 0 0 0 0 0 0 0 0 0 0 0 0 0 0 0 0 0 0 0 0 0 0 0
0 0 0 0 0 0 0 0 0 0 0 0 0 0 0 0 0 0 0 0 0 0 0 0 0 0 0 0 0 0 0 0 0 0 0 0 0 0 0 0 0 0 0 0
0 0 0 0 0 0 0 0 0 0 0 0 0 0 0 0 0 0 0 0 0 0 0 0 0 0 0 0 0 0 0 0 0 0 0 0 0 0 0 0 0 0 0 0
0 0 0 0 0 0 0 0 0 0 0 0 0 0 0 0 0 0 0 0 0 0 0 0 0 0 0 0 0 0 0 0 0 0 0 0 0 0 0 0 0 0 0 0
0 0 0 0 0 0 0 0 0 0 0 0 0 0 0 0 0 0 0 0 0 0 0 0 0 0 0 0 0 0 0 0 0 0 0 0 0 0 0 0 0 0 0 0
0 0 0 0 0 0 0 0 0 0 0 0 0 0 0 0 0 0 0 0 0 0 0 0 0 0 0 0 0 0 0 0 0 0 0 0 0 0 0 0 0 0 0 0
0 0 0 0 0 0 0 0 0 0 0 0 0 0 0 0 0 0 0 0 0 0 0 0 0 0 0 0 0 0 0 0 0 0 0 0 0 0 0 0 0 0 0 0
0 0 0 0 0 0 0 0 0 0 0 0 0 0 0 0 0 0 0 0 0 0 0 0 0 -0 -0 0 0 0 0 0 0 0 0 0 0 0 0 0 0 0 0 0
0 0 0 0 0 0 0 0 0 0 0 -0 0 0 0 0 -0 0 0 0 0 0 0 0 0 -0 -0 -0 -0 0 0 0 0 0 0 0 0 0 0 0 0 0 0 0
-0 0 0 0 0 0 0 0 0 0 0 -0 0 0 0 0 0 0 0 0 0 0 0 0 0 -0 -0 -0 -0 0 0 0 0 0 0 0 0 0 0 0 0 0 0 0
0 0 0 0 0 0 0 0 0 0 0 0 0 0 0 0 0 0 0 0 0 0 0 0 0 0 0 -0 -0 0 0 0 0 0 0 0 0 0 0 0 0 0 0 0
0 0 0 0 0 0 0 0 0 0 0 0 0 0 0 0 0 0 0 0 0 0 0 0 0 0 0 0 -0 0 0 0 0 0 0 0 0 0 0 0 0 0 0 0
0 0 0 0 0 0 0 0 0 0 0 0 0 0 0 0 0 0 0 0 0 0 0 0 0 0 0 0 -0 0 0 0 0 0 0 0 0 0 0 -0 0 0 0 0
0 0 0 0 0 0 0 0 0 0 0 0 0 0 0 0 0 0 0 0 0 0 0 0 0 0 0 0 0 0 0 0 0 0 0 0 0 0 -0 -0 -0 0 0 0
0 0 0 0 0 0 0 0 0 0 0 0 0 0 0 0 0 0 0 0 0 0 0 0 0 0 0 0 0 0 0 0 0 0 0 0 0 0 -0 -0 0 0 0 0
0 0 0 0 0 0 0 0 0 0 0 0 0 0 0 0 0 0 0 0 0 0 0 0 0 0 0 0 0 0 0 0 0 0 0 0 0 0 0 0 0 0 0 0
0 0 0 0 0 0 0 0 0 0 0 0 0 0 0 0 0 0 0 0 0 0 0 0 0 0 0 0 0 0 0 0 0 0 0 0 0 0 0 0 0 0 0 0
0 0 0 0 0 0 0 0 -0 0 0 0 0 0 0 0 0 0 0 -0 -0 -0 0 0 0 0 0 0 0 0 0 0 0 0 0 0 0 0 0 0 0 0 0 0
0 0 0 0 0 0 0 0 0 0 0 0 0 0 0 0 0 0 0 0 -0 -0 0 0 0 0 0 0 0 0 0 0 0 0 0 0 0 0 0 0 0 0 0 0
0 0 0 0 0 0 0 0 0 0 0 0 0 0 0 0 0 0 0 0 -0 -0 0 0 0 0 0 0 0 0 0 0 0 0 0 0 0 0 0 0 0 0 0 0
-0 -0 0 0 0 0 0 0 0 0 0 0 0 0 0 0 0 0 0 0 -0 -0 0 0 0 0 0 0 0 0 0 0 0 0 0 0 0 0 0 0 0 0 0 0
0 0 0 0 0 0 0 0 0 0 0 0 0 0 0 0 0 0 0 0 -0 -0 -0 0 0 0 0 0 0 0 0 0 0 0 0 0 0 0 0 0 0 0 0 0
0 0 0 0 0 0 0 0 0 0 0 0 0 0 0 0 0 0 0 0 -0 -0 -0 -0 -0 -0 0 0 0 0 0 0 0 0 0 0 0 0 0 0 0 0 0 0
0 0 0 0 0 0 0 0 0 0 0 0 0 0 0 0 0 0 0 0 0 0 0 0 0 0 0 0 0 -0 -0 0 0 0 0 0 0 0 0 0 0 0 0 0
Wind_Speed
1 2 2 4 5 3 2 3 6 6 4 3 6 10 12 10 7 6 6 5 6 7 6 4 3 3 2 2 4 4 5 4 4 3 3 4 3 3 4 4 5 6 6 7
2 2 5 3 4 4 4 5 6 6 3 3 5 9 8 6 5 5 6 6 6 7 6 4 2 2 2 2 3 4 4 4 4 4 3 3 3 3 3 3 4 5 5 6
3 3 2 3 3 3 5 5 5 5 5 2 4 7 6 5 5 7 8 7 7 6 7 6 4 2 1 1 2 2 3 4 4 4 3 3 2 2 2 3 3 5 6 7
3 3 2 3 4 4 4 4 5 4 3 3 2 4 6 6 7 9 10 9 8 7 6 6 5 4 3 2 1 0 2 3 3 4 4 4 3 3 3 3 3 4 5 5
2 1 1 2 3 4 4 3 3 2 1 2 2 1 6 6 7 10 10 10 9 8 7 6 5 5 4 3 2 1 2 2 2 3 4 4 3 2 1 2 2 2 3 4
3 2 1 2 1 2 2 1 1 1 1 2 2 0 4 5 7 10 10 10 10 9 8 7 7 6 6 5 3 2 3 2 2 2 3 3 3 3 2 2 1 1 2 2
5 3 2 1 1 2 1 2 3 4 3 2 2 0 3 4 5 6 8 8 9 9 8 9 9 8 8 7 6 4 4 4 3 3 2 2 3 3 3 3 2 2 1 1
3 4 3 1 1 1 1 2 2 1 2 3 3 2 3 2 4 5 6 6 7 8 8 9 9 8 8 8 7 5 4 4 3 3 2 1 1 1 1 1 1 2 2 2
1 4 3 2 1 1 0 0 1 3 0 1 3 4 3 2 6 7 7 7 8 8 8 8 8 8 8 8 7 6 5 4 3 2 2 2 1 1 1 0 0 1 1 1
1 3 4 3 2 2 0 1 2 2 1 2 4 3 3 4 5 6 6 7 7 8 7 7 7 8 8 7 7 7 6 5 4 3 2 2 2 1 1 1 1 1 0 0
1 0 4 3 2 2 2 1 2 1 1 2 2 5 2 2 2 3 4 5 5 6 7 7 6 6 7 7 7 7 7 6 5 3 2 2 2 2 2 2 1 1 0 0
0 1 2 4 3 2 1 1 2 1 1 1 2 5 2 1 0 1 3 4 5 5 6 6 6 6 7 7 7 7 6 6 6 4 3 3 2 2 2 1 1 1 1 1
1 2 3 5 4 3 1 0 1 2 2 2 2 5 2 2 2 2 2 3 4 5 6 6 7 7 7 7 7 7 6 6 6 5 4 4 3 3 3 2 2 2 2 2
3 2 3 4 4 3 4 2 1 3 2 2 5 5 4 3 2 2 2 2 3 4 4 5 6 6 7 7 7 7 6 6 6 5 5 4 4 3 2 2 2 2 2 2
2 1 2 4 5 4 4 5 3 4 5 6 5 4 6 5 4 3 2 1 3 4 5 5 5 6 6 7 7 7 7 6 6 6 6 5 4 4 4 4 4 3 3 3
2 0 2 4 3 3 5 6 5 5 4 5 4 6 5 2 2 1 1 1 2 3 4 4 5 5 5 6 6 6 6 6 6 6 6 5 5 5 5 4 4 4 4 3
1 1 2 4 5 5 7 6 6 4 4 6 6 6 2 2 4 4 3 3 2 2 2 3 3 3 4 4 4 5 5 5 6 6 6 6 6 6 5 4 4 4 4 4
2 2 1 3 5 4 6 2 4 4 4 6 5 4 4 5 3 2 3 4 4 3 2 2 2 3 3 3 3 4 4 5 5 6 6 6 6 6 6 6 6 5 4 5
3 3 1 0 3 8 7 2 3 3 5 5 7 5 3 2 1 3 3 4 4 3 2 2 1 1 2 3 3 4 4 5 5 6 6 7 6 6 7 7 6 5 4 4
3 3 2 1 2 6 5 1 1 2 5 4 5 6 4 5 2 5 3 3 3 2 1 1 0 1 2 2 2 3 4 5 5 5 5 5 5 5 5 5 5 4 4 4
1 1 3 3 4 10 7 2 2 2 5 2 4 5 7 7 6 3 2 2 3 2 2 1 1 0 1 1 2 3 3 4 4 4 4 5 5 4 4 4 4 4 4 4
6 4 5 4 4 9 3 4 6 7 3 2 3 4 6 5 2 2 2 3 3 2 2 2 1 1 1 1 1 1 2 3 3 3 3 4 4 4 4 4 4 4 4 5
6 8 6 9 10 6 3 6 5 2 3 3 3 3 4 4 4 3 3 3 3 3 2 2 2 1 1 0 0 1 3 2 2 2 3 3 3 3 4 4 4 4 4 4
5 3 3 6 10 7 8 7 6 5 5 5 4 4 4 5 5 4 4 3 3 3 2 2 2 2 2 1 1 2 2 2 1 2 3 3 3 4 4 3 3 3 3 4
6 4 4 7 9 7 6 6 6 4 4 4 3 4 5 5 5 5 5 4 4 3 3 2 3 3 3 2 1 2 2 1 2 2 3 3 3 3 3 3 3 3 2 3
7 9 8 9 7 5 6 4 3 4 4 5 4 3 4 6 6 5 5 4 4 4 3 3 3 4 3 2 2 1 1 0 1 2 2 2 2 2 3 3 4 5 5 8
Wind_Direction
94 94 215 215 203 222 231 265 282 278 284 298 288 295 306 319 330 321 320 321 319 306 286 277 263 252 255 238 209 207 196 189 170 166 173 179 188 188 187 194 192 191 189 186
60 251 240 218 213 234 243 272 280 289 287 275 294 301 308 324 336 341 342 338 328 330 339 331 322 304 269 230 203 199 196 184 179 177 172 176 169 180 187 185 196 193 192 193
203 250 231 210 228 240 249 238 251 270 306 286 306 312 329 339 10 8 2 353 346 342 344 344 350 336 317 294 241 217 187 177 173 170 156 149 142 138 178 190 202 201 197 196
250 264 241 232 237 216 262 237 241 264 310 323 6 308 319 344 360 5 359 356 353 352 356 1 5 2 357 328 303 184 162 170 168 160 156 159 169 178 192 191 205 203 200 200
275 278 251 243 244 200 235 255 252 262 250 303 325 264 308 343 356 354 353 357 358 357 1 6 9 8 4 7 28 59 120 141 144 153 161 163 175 181 174 167 186 203 196 196
263 265 240 246 275 202 237 323 318 50 72 320 315 188 312 343 339 339 350 357 357 360 7 12 12 15 13 17 33 47 90 87 105 138 156 155 164 166 152 153 182 215 209 207
340 326 310 264 344 2 62 51 24 9 14 286 313 154 273 320 337 337 343 350 356 2 10 14 13 17 17 18 26 38 56 54 59 79 103 142 165 169 167 175 191 203 214 220
3 329 317 320 227 265 296 133 141 211 270 303 338 276 271 330 342 347 352 354 2 7 13 16 14 17 16 15 19 33 45 43 45 62 74 97 141 160 156 185 192 201 211 221
5 301 309 291 259 155 59 137 179 136 122 307 303 300 306 13 358 3 3 9 7 6 13 16 14 16 17 15 14 20 34 36 33 37 50 51 63 89 86 127 221 226 229 228
181 295 311 313 35 30 103 161 88 104 114 310 305 287 283 315 331 344 354 0 3 4 9 11 14 16 16 15 14 19 27 27 21 25 48 62 56 47 63 85 26 308 312 305
192 278 318 358 20 322 7 56 84 105 149 164 287 281 246 242 297 324 337 350 357 360 4 7 7 9 12 15 15 17 19 17 12 19 43 55 54 55 54 49 336 288 352 311
179 120 296 280 264 220 190 167 147 141 259 178 207 273 331 204 312 350 340 344 350 359 2 5 6 8 13 14 10 12 13 14 8 14 38 44 40 48 46 30 348 347 353 315
140 97 359 347 346 356 354 251 141 133 124 167 206 269 345 17 14 356 336 331 341 357 2 6 10 8 6 6 6 7 8 8 7 15 37 37 30 29 15 347 343 348 359 350
107 116 168 212 257 285 292 281 186 149 170 223 230 254 288 298 299 302 307 315 337 355 1 6 6 2 1 2 6 8 7 5 8 19 32 32 25 18 355 348 3 7 12 4
93 164 244 252 267 268 265 264 231 204 206 208 233 235 252 246 234 243 263 318 357 357 357 357 359 358 360 2 5 6 6 7 12 23 27 24 17 20 16 20 20 19 17 6
45 325 329 302 300 296 277 261 241 228 215 218 242 264 250 229 186 222 253 293 332 329 335 342 350 355 356 356 356 1 5 6 15 25 21 18 20 23 22 18 19 20 15 6
9 54 347 296 320 336 287 249 206 214 209 188 214 234 203 195 205 212 218 225 244 276 309 327 334 337 340 345 352 2 3 8 19 22 19 19 21 24 23 17 23 18 11 10
159 126 150 307 357 275 254 268 196 219 247 218 228 230 205 211 220 228 212 210 232 251 273 292 312 326 334 346 0 8 14 18 20 20 17 14 17 20 18 22 22 13 9 2
167 151 143 8 304 283 293 257 178 193 279 226 217 230 211 154 42 285 228 207 216 226 232 249 266 301 340 357 1 18 20 19 20 16 11 9 11 13 12 12 6 2 4 359
87 115 134 150 270 260 262 277 174 101 291 257 197 205 185 144 199 257 218 192 204 206 211 238 288 29 10 350 9 31 17 16 10 3 3 4 6 9 6 358 352 352 357 350
161 156 182 199 243 267 257 242 122 164 257 256 189 193 180 191 210 221 163 178 191 194 200 178 118 78 313 350 34 32 14 358 344 351 359 3 1 359 353 353 354 352 357 354
192 187 201 179 217 260 232 150 189 224 262 223 199 193 192 210 221 204 193 194 191 192 193 172 166 241 309 19 57 27 344 321 337 351 357 355 352 352 356 358 355 354 356 357
207 197 192 200 223 245 218 218 241 229 242 238 212 213 190 198 217 219 216 213 215 211 207 186 185 240 299 326 150 268 296 318 337 351 347 344 351 357 358 357 354 355 359 356
261 197 207 257 261 254 250 251 255 237 238 243 229 217 196 206 215 218 220 220 218 220 213 197 185 227 256 254 238 255 292 320 345 348 343 347 354 353 356 355 352 351 346 342
237 187 219 261 275 294 277 239 237 240 235 235 231 214 208 202 215 213 216 220 220 220 216 196 202 225 243 244 246 279 313 350 352 343 343 345 346 342 339 338 331 324 307 311
203 191 196 233 234 224 262 269 235 223 229 221 215 226 221 205 214 210 215 217 212 212 207 205 213 225 237 234 254 288 307 335 342 334 332 327 327 327 326 325 324 318 314 323